This is the latest recevied weather packets stored in our database for station/object WB9PAR. If no packets are shown the sender has not sent any weather packets the latest 10 day(s).
| Time | Temp. | Humidity | Pressure | Rain* | Wind** | Luminosity | Snow |
|---|---|---|---|---|---|---|---|
| 1788568727 | 28.89° C | 76% | 1044.6 hPa | 0 mm | - | 0 W/m² | - |
| 1788568423 | 28.89° C | 75% | 1044.9 hPa | 0 mm | - | 0 W/m² | - |
| 1788568118 | 28.89° C | 75% | 1044.7 hPa | 0 mm | - | 0 W/m² | - |
| 1788567818 | 29.44° C | 74% | 1044.9 hPa | 0 mm | - | 1 W/m² | - |
| 1788567513 | 29.44° C | 74% | 1044.8 hPa | 0 mm | - | 1 W/m² | - |
| 1788567213 | 30° C | 73% | 1045.1 hPa | 0 mm | - | 3 W/m² | - |
| 1788566908 | 30° C | 73% | 1044.8 hPa | 0 mm | - | 5 W/m² | - |
| 1788566603 | 30° C | 72% | 1045.2 hPa | 0 mm | - | 9 W/m² | - |
| 1788566299 | 30.56° C | 72% | 1045 hPa | 0 mm | - | 13 W/m² | - |
| 1788565994 | 30.56° C | 71% | 1044.7 hPa | 0 mm | - | 17 W/m² | - |
| 1788565689 | 30.56° C | 71% | 1045 hPa | 0 mm | - | 20 W/m² | - |
| 1788565383 | 30.56° C | 70% | 1045.1 hPa | 0 mm | - | 24 W/m² | - |
| 1788565079 | 30.56° C | 70% | 1045 hPa | 0 mm | - | 29 W/m² | - |
| 1788564775 | 30.56° C | 69% | 1045.1 hPa | 0 mm | - | 32 W/m² | - |
| 1788564472 | 30.56° C | 70% | 1045 hPa | 0 mm | - | 37 W/m² | - |
| 1788564168 | 31.11° C | 69% | 1044.8 hPa | 0 mm | - | 43 W/m² | - |
| 1788563883 | 31.11° C | 70% | 1044.9 hPa | 0 mm | - | 57 W/m² | - |
| 1788563558 | 31.11° C | 69% | 1044.6 hPa | 0 mm | - | 55 W/m² | - |
| 1788563259 | 31.11° C | 70% | 1045 hPa | 0 mm | - | 49 W/m² | - |
| 1788562953 | 31.11° C | 69% | 1044.9 hPa | 0 mm | - | 55 W/m² | - |
| 1788562652 | 31.11° C | 68% | 1044.9 hPa | 0 mm | - | 54 W/m² | - |
| 1788562346 | 31.11° C | 68% | 1044.9 hPa | 0 mm | - | 51 W/m² | - |
| 1788562045 | 31.67° C | 68% | 1044.9 hPa | 0 mm | - | 63 W/m² | - |
| 1788561741 | 31.67° C | 68% | 1045 hPa | 0 mm | - | 68 W/m² | - |
| 1788561440 | 31.67° C | 69% | 1045 hPa | 0 mm | - | 73 W/m² | - |
* Rain latest hour (hover to see other rain measurements)
** Current wind speed in m/s (hover to see current wind gust speed)